WGS F5 (USA 243)

Last updated on Thu Jul 03 2025 00:02:46 GMT+0000 (Coordinated Universal Time)

1 39168U 13024A 25183.48484128 -.00000277 00000+0 00000+0 0 9990 2 39168 0.0177 24.5089 0000410 352.2966 25.9942 1.00274087 43669
UTC large
Height (km)
Speed (km/s)
/
Latitude / Longitude
Inclination (degrees)
Orbital Period (minutes)
Azimuth
Elevation
Range (km)
Doppler Factor

Next 0 passes for location: London (51.5072 / 0.1276)

Sorry there are no passes over London.